Regional Weather Roundup
Issued by NWS

Home | Current Version | Previous Version | Graphics & Text | Print | Product List | Glossary On
Versions: 1 2 3 4 5 6 7 8 9 10 11 12 13 14 15 16 17 18 19 20 21 22 23 24 25 26 27 28 29 30 31 32 33 34 35 36 37 38 39 40 41 42 43 44 45 46 47 48 49 50
000
ASUS45 KSLC 211110
RWRUT

UTAH REGIONAL WEATHER ROUNDUP
NATIONAL WEATHER SERVICE SALT LAKE CITY UT
500 AM MDT SAT OCT 21 2017

UTZ001>011-023>025-211200-

NORTHERN UTAH

CITY           SKY/WX    TMP DP  RH WIND       PRES   REMARKS
BRIGHAM CITY   PTCLDY    32  24  71 CALM      30.10R
HILL AFB       CLOUDY    39  25  56 CALM      30.09R
LOGAN          MOCLDY    37  29  72 S5        30.08R WCI  33
OGDEN          PTCLDY    36  27  69 CALM      30.09R
SALT LAKE CITY MOCLDY    45  29  53 CALM      30.10R
TOOELE VALLEY  PTCLDY    30  23  74 CALM      30.11R
WENDOVER       PTCLDY    38  22  52 NW10      30.12R WCI  31
WEST JORDAN    MOCLDY    36  27  70 NW3       30.10R

$$

UTZ011>015-024>027-211200-

CENTRAL/NORTHEAST UTAH

CITY           SKY/WX    TMP DP  RH WIND       PRES   REMARKS
PROVO AIRPORT  PTCLDY    33  25  72 SE6       30.11R WCI  28
MOAB/CANYONLAN PTCLDY    41  17  38 W14       30.02R
DELTA          PTCLDY    28  19  69 S5        30.12R WCI  23
PRICE          CLOUDY    32  18  56 N8        30.06R WCI  25
ROOSEVELT      CLEAR     34  14  44 W6        30.07R WCI  29
VERNAL         CLEAR     32  16  51 E7        30.04R WCI  26

$$

UTZ013>016-019>022-027-211200-

SOUTHERN UTAH

CITY           SKY/WX    TMP DP  RH WIND       PRES   REMARKS
BRYCE CANYON   MOCLDY    23  15  71 NW9       30.07R WCI  13
CEDAR CITY     PTCLDY    23  15  71 CALM      30.08R
MILFORD        PTCLDY    25  13  60 CALM      30.10R
ST GEORGE      MOSUNNY   48  16  27 S5        30.03R
HANKSVILLE     PTCLDY    36  16  44 N5        30.08R WCI  32
BLANDING         N/A     37  15  41 N3        30.07R

$$

REGIONAL REPORTS     COLORADO/ARIZONA

CITY           SKY/WX    TMP DP  RH WIND       PRES   REMARKS
CRAIG, CO      CLOUDY    24  19  81 CALM      30.03R
GRAND JUNCTION CLEAR     36  16  44 NW8       30.01R WCI  30
RIFLE, CO      MOCLDY    36  28  73 W7        30.02R WCI  30
MONTROSE, CO   CLOUDY    42  14  32 NW12      30.02R
CORTEZ, CO     MOCLDY    43  14  31 NW5       30.00R
COLORADO CITY    N/A     43  14  31 CALM      30.06R
PAGE, AZ       PTCLDY    50  17  27 W6        29.99R
GRAND CANYON   PTCLDY    31  28  89 CALM      30.04R
KINGMAN, AZ    CLEAR     49  13  23 E10       29.98R
FLAGSTAFF, AZ  CLEAR     36  34  92 SW6       30.04R WCI  31

$$

REGIONAL REPORTS    NEVADA/IDAHO/WYOMING

CITY           SKY/WX    TMP DP  RH WIND       PRES   REMARKS
LAS VEGAS, NV  CLEAR     62  11  13 NE14      30.00R
ELY, NY        MOCLDY    16   9  74 S9        30.14R WCI   4
ELKO, NV       MOCLDY    22  17  81 CALM      30.13S
POCATELLO, ID  CLEAR     34  28  79 SW10      30.06R WCI  26
BURLEY, ID     MOCLDY    36  28  73 SW13      30.08R WCI  27
FORT BRIDGER,    N/A     27  21  77 W10       30.08R WCI  17
EVANSTON, WY   CLOUDY    27  21  78 SW10      30.06R WCI  17
ROCK SPRINGS,  CLEAR     26  17  68 SW12      30.01R WCI  16

$$



USA.gov is the U.S. government's official web portal to all federal, state and local government web resources and services.